Tracking 31027 objects as of 19-Jul-2025
HD Live streaming from Space Station
objects crossing your sky now

STARLINK-5148

Track STARLINK-5148 now!
10-day predictions
STARLINK-5148 is classified as:


NORAD ID: 53978
Int'l Code: 2022-125Q
Perigee: 546.0 km
Apogee: 547.8 km
Inclination: 53.2 °
Period: 95.4 minutes
Semi major axis: 6917 km
RCS: Unknown
Launch date: October 5, 2022
Source: United States (US)
Launch site: AIR FORCE WESTERN TEST RANGE (AFWTR)
Your satellite tracking list
SL-8 R/B
Track 1 satellite(s)




NASA's NSSDC Master Catalog

Two Line Element Set (TLE):
1 53978U 22125Q   25199.26714133 -.00000709  00000-0 -26435-4 0  9999
2 53978  53.2162 191.3995 0001249  76.3420 283.7711 15.08837988154004
Source of the keplerian elements: AFSPC